TOURFACTS.DK  
Stats and Facts from Tour de France.

Tour de France 2019 starts in 321 days
  Riders   Stages   Teams   Summits   Yearly  


 
Search by year

After 2018 - Stage 21:
 15000 starters.
  5165 different riders.
  638 teams.
  2253 stages.
  456 restdays.
  442940.60 km.
  5684 abandonnees.


Top 3
GC
Geraint Thomas83:17:13
Tom Dumoulin83:19:04
Christopher Froome83:19:37
Climb
Julian Alaphilippe170 pt.
Warren Barguil91 pt.
Rafal Majka76 pt.
Sprint
Peter Sagan477 pt.
Alexander Kristoff246 pt.
Arnaud Démare203 pt.
Youth
Pierre-Roger Latou..83:39:26
Egan Bernal83:45:05
Guillaume Martin84:01:31
Facts from Tour de France 2015
  |   Stages.  |   Stage winners.  |   Days in yellow  |   Average speed.  |   Route.  |   Teams.  |   All riders.  |   Rookies.  |  

  |   Withdrawls.  |   GC.  |   Polka  |   Green  |   White  |   Summits. (In tour)  |   Miscellaneous.  |  

Stage 12 on 16 - 07 - 2015
         Owning:    Christopher Froome      Christopher Froome      Peter Sagan      Nairo Quintana  

Pick a stage:  1 2 3 4 5 6 7 8 9 10 11 12 13 14 15 16 17 18 19 20 21
  LannemezanPlateau de Beille | Dist: 195.00 km.
Cat: 2Col de Portet-d'AspetAUTGeorg Preidler5 points 
Cat: 1Col de la CoreHRVKristijan Durasek10 points 
Cat: 1Port de LersPOLMichal Kwiatkowski10 points 
Cat: HPlateau de BeilleESPJoaquim Rodriguez50 points 

Average speed for all riders in stage:  31,922 km./hr.
    Place:Name:Team:Time:Km/h:
1
ESPJoaquim RodriguezRUSTeam Katusha05:40:14  +  00:00:00=34,388 
2
SUIJakob FuglsangKAZAstana Pro Team05:41:26  +  00:01:12=34,267 
3
FRARomain BardetFRAAg2r La Mondiale05:42:03  +  00:01:49=34,206 
44 ESPGorka Izaguirre InsaustiESPMovistar Team05:44:48  +  00:04:34=33,933 
55 RSALouis MeintjesZAFMTN - Qhubeka P/B Samsung05:44:52  +  00:04:38=33,926 
66 CZEJan BártaDEUBora-Argon 1805:46:01  +  00:05:47=33,813 
77 FRARomain SicardFRATeam Europcar05:46:17  +  00:06:03=33,787 
88 FRAMickaël CherelFRAAg2r La Mondiale05:46:42  +  00:06:28=33,747 
99 ESPAlejandro ValverdeESPMovistar Team05:47:00  +  00:06:46=33,718 
1010 KENChristopher FroomeGBRSky Procycling05:47:01  +  00:06:47=33,716 
1111 COLNairo QuintanaESPMovistar Team05:47:01  +  00:06:47=33,716 
1212 FRAThibaut PinotFRAFDJ05:47:01  +  00:06:47=33,716 
1313 USATejay Van GarderenUSABMC Racing Team05:47:01  +  00:06:47=33,716 
1414 ESPAlberto ContadorRUSTinkoff Saxo05:47:01  +  00:06:47=33,716 
1515 FRAPierre RollandFRATeam Europcar05:47:01  +  00:06:47=33,716 
1616 ITAVincenzo NibaliKAZAstana Pro Team05:47:01  +  00:06:47=33,716 
1717 WALGeraint ThomasGBRSky Procycling05:47:01  +  00:06:47=33,716 
1818 NEDRobert GesinkNLDTeam Lotto NL - Jumbo05:47:58  +  00:07:44=33,624 
1919 NEDBauke MollemaUSATrek Factory Racing05:47:58  +  00:07:44=33,624 
2020 ESPSamuel SanchezUSABMC Racing Team05:49:27  +  00:09:13=33,481 
2121 USAAndrew TalanskyUSATeam Cannondale - Garmin05:50:00  +  00:09:46=33,429 
2222 FRATony GallopinBELLotto Soudal05:50:00  +  00:09:46=33,429 
2323 FRAWarren BarguilDEUTeam Giant Alpecin05:50:00  +  00:09:46=33,429 
2424 SUIMathias FrankCHEIAM Cycling05:50:00  +  00:09:46=33,429 
2525 ARGEduardo SepulvedaFRABretagne - Séché Environnement05:50:00  +  00:09:46=33,429 
2626 NEDLaurens ten DamNLDTeam Lotto NL - Jumbo05:50:00  +  00:09:46=33,429 
2727 POLMichal KwiatkowskiBELEtixx - Quick Step05:51:49  +  00:11:35=33,256 
2828 FRAAlexis VuillermozFRAAg2r La Mondiale05:52:01  +  00:11:47=33,237 
2929 AUSRichie PorteGBRSky Procycling05:52:52  +  00:12:38=33,157 
3030 BELSep VanmarckeNLDTeam Lotto NL - Jumbo05:52:52  +  00:12:38=33,157 
3131 CANRyder HesjedalUSATeam Cannondale - Garmin05:53:01  +  00:12:47=33,143 
3232 BELSerge PauwelsZAFMTN - Qhubeka P/B Samsung05:53:49  +  00:13:35=33,068 
3333 ESPJonathan CastroviejoESPMovistar Team05:56:13  +  00:15:59=32,845 
3434 COLJarlinson Pantano GomezCHEIAM Cycling05:56:13  +  00:15:59=32,845 
3535 ERIDaniel TeklehaimanotZAFMTN - Qhubeka P/B Samsung05:57:16  +  00:17:02=32,749 
3636 SUISteve MorabitoFRAFDJ05:57:16  +  00:17:02=32,749 
3737 PORTiago PintoRUSTeam Katusha05:57:16  +  00:17:02=32,749 
3838 CZERoman KreuzigerRUSTinkoff Saxo05:57:16  +  00:17:02=32,749 
3939 AUSMichael RogersRUSTinkoff Saxo05:57:16  +  00:17:02=32,749 
4040 FRANicolas RocheGBRSky Procycling05:57:16  +  00:17:02=32,749 
4141 POLRafal MajkaRUSTinkoff Saxo05:57:16  +  00:17:02=32,749 
4242 ESPAlberto LosadaRUSTeam Katusha05:57:16  +  00:17:02=32,749 
4343 DENLars BakBELLotto Soudal05:57:16  +  00:17:02=32,749 
4444 GERSimon GeschkeDEUTeam Giant Alpecin05:58:30  +  00:18:16=32,636 
4545 FRAThomas VoecklerFRATeam Europcar05:58:33  +  00:18:19=32,631 
4646 FRAJérôme CoppelCHEIAM Cycling05:59:52  +  00:19:38=32,512 
4747 NEDSteven KruijswijkNLDTeam Lotto NL - Jumbo05:59:52  +  00:19:38=32,512 
4848 ESPLuis Angel MateFRACofidis – Solutions Crédits05:59:52  +  00:19:38=32,512 
4949 GEREmanuel BuchmannDEUBora-Argon 1805:59:52  +  00:19:38=32,512 
5050 FRAAnthony DelaplaceFRABretagne - Séché Environnement05:59:52  +  00:19:38=32,512 
5151 FRASylvain ChavanelCHEIAM Cycling05:59:52  +  00:19:38=32,512 
5252 URSTanel KangertKAZAstana Pro Team06:00:21  +  00:20:07=32,468 
5353 ESPHaimar ZubeldiaUSATrek Factory Racing06:01:01  +  00:20:47=32,408 
5454 NEDWilco KeldermanNLDTeam Lotto NL - Jumbo06:01:01  +  00:20:47=32,408 
5555 LUXBob JungelsUSATrek Factory Racing06:01:01  +  00:20:47=32,408 
5656 SUIMichael SchärUSABMC Racing Team06:01:01  +  00:20:47=32,408 
5757 SUIDanilo WyssUSABMC Racing Team06:01:01  +  00:20:47=32,408 
5858 BELJan BakelantsFRAAg2r La Mondiale06:01:01  +  00:20:47=32,408 
5959 FRAFrédéric BrunFRABretagne - Séché Environnement06:01:01  +  00:20:47=32,408 
6060 HRVKristijan DurasekITALampre-Merida06:01:01  +  00:20:47=32,408 
6161 NEDBram TankinkNLDTeam Lotto NL - Jumbo06:01:01  +  00:20:47=32,408 
6262 IOMPeter KennaughGBRSky Procycling06:01:01  +  00:20:47=32,408 
6363 ESPDaniel NavarroFRACofidis – Solutions Crédits06:02:00  +  00:21:46=32,320 
6464 COLWinner AnaconaESPMovistar Team06:03:20  +  00:23:06=32,202 
6565 ENGDaniel MartinUSATeam Cannondale - Garmin06:03:23  +  00:23:09=32,197 
6666 FRAJean-Christophe PeraudFRAAg2r La Mondiale06:03:30  +  00:23:16=32,187 
6767 ENGStephen CummingsZAFMTN - Qhubeka P/B Samsung06:03:49  +  00:23:35=32,159 
6868 CZELeopold KönigGBRSky Procycling06:04:42  +  00:24:28=32,081 
6969 BELThomas De GendtBELLotto Soudal06:06:01  +  00:25:47=31,966 
7070 NEDLieuwe WestraKAZAstana Pro Team06:06:01  +  00:25:47=31,966 
7171 NEDWout PoelsGBRSky Procycling06:06:03  +  00:25:49=31,963 
7272 FRAJérémy RoyFRAFDJ06:06:03  +  00:25:49=31,963 
7373 AUTGeorg PreidlerDEUTeam Giant Alpecin06:06:39  +  00:26:25=31,911 
7474 FRAMatthieu LadagnousFRAFDJ06:06:39  +  00:26:25=31,911 
7575 ESPJosé Herrada LópezESPMovistar Team06:07:46  +  00:27:32=31,814 
7676 ESPRubén PlazaITALampre-Merida06:07:46  +  00:27:32=31,814 
7777 AUSRohan DennisUSABMC Racing Team06:07:46  +  00:27:32=31,814 
7878 ITADamiano CarusoUSABMC Racing Team06:07:46  +  00:27:32=31,814 
7979 SUIMarcel WyssCHEIAM Cycling06:10:38  +  00:30:24=31,568 
8080 SUIMartin ElmigerCHEIAM Cycling06:10:38  +  00:30:24=31,568 
8181 SUIReto HollensteinCHEIAM Cycling06:10:38  +  00:30:24=31,568 
8282 FRANicolas EdetFRACofidis – Solutions Crédits06:10:38  +  00:30:24=31,568 
8383 GERJohn DegenkolbDEUTeam Giant Alpecin06:13:41  +  00:33:27=31,310 
8484 NEDKoen De KortDEUTeam Giant Alpecin06:13:41  +  00:33:27=31,310 
8585 FRABrice FeilluFRABretagne - Séché Environnement06:13:48  +  00:33:34=31,300 
8686 NEDStef ClementCHEIAM Cycling06:13:48  +  00:33:34=31,300 
8787 ITAGiampaolo CarusoRUSTeam Katusha06:13:48  +  00:33:34=31,300 
8888 ITAMatteo TosattoRUSTinkoff Saxo06:13:48  +  00:33:34=31,300 
8989 BELJens DebusschereBELLotto Soudal06:13:48  +  00:33:34=31,300 
9090 AUSAdam HansenBELLotto Soudal06:13:48  +  00:33:34=31,300 
9191 ESPMarkel IrizarUSATrek Factory Racing06:13:48  +  00:33:34=31,300 
9292 FRAArmindo FonsecaFRABretagne - Séché Environnement06:13:48  +  00:33:34=31,300 
9393 BELStijn DevolderUSATrek Factory Racing06:13:48  +  00:33:34=31,300 
9494 FRAJulien SimonFRACofidis – Solutions Crédits06:13:48  +  00:33:34=31,300 
9595 NEDRoy CurversDEUTeam Giant Alpecin06:13:48  +  00:33:34=31,300 
9696 PORNelson OliveiraITALampre-Merida06:13:48  +  00:33:34=31,300 
9797 FRABenoit VaugrenardFRAFDJ06:13:48  +  00:33:34=31,300 
9898 FRAFlorian SénéchalFRACofidis – Solutions Crédits06:13:48  +  00:33:34=31,300 
9999 FRAPerrig QuemeneurFRATeam Europcar06:13:48  +  00:33:34=31,300 
100100 GERPaul MartensNLDTeam Lotto NL - Jumbo06:13:48  +  00:33:34=31,300 
101101 FRAPierrick FédrigoFRABretagne - Séché Environnement06:13:48  +  00:33:34=31,300 
102102 ERIMerhawi GhebremedhinZAFMTN - Qhubeka P/B Samsung06:13:48  +  00:33:34=31,300 
103103 SUIGregory RastUSATrek Factory Racing06:13:48  +  00:33:34=31,300 
104104 FRAFlorian VachonFRABretagne - Séché Environnement06:13:48  +  00:33:34=31,300 
105105 FRAArnaud GérardFRABretagne - Séché Environnement06:13:48  +  00:33:34=31,300 
106106 FRAAlexandre GeniezFRAFDJ06:13:48  +  00:33:34=31,300 
107107 UKRAndriy GrivkoKAZAstana Pro Team06:13:48  +  00:33:34=31,300 
108108 ESPImanol ErvitiESPMovistar Team06:13:48  +  00:33:34=31,300 
109109 ITAAdriano MaloriESPMovistar Team06:13:48  +  00:33:34=31,300 
110110 ENGAdam YatesAUSOrica - GreenEDGE06:13:48  +  00:33:34=31,300 
111111 POLMichal GolasBELEtixx - Quick Step06:13:48  +  00:33:34=31,300 
112112 ITAManuel QuinziatoUSABMC Racing Team06:13:48  +  00:33:34=31,300 
113113 NEDJos Van EmdenNLDTeam Lotto NL - Jumbo06:13:48  +  00:33:34=31,300 
114114 SLOKristjan KorenUSATeam Cannondale - Garmin06:13:48  +  00:33:34=31,300 
115115 BELJulien VermoteBELEtixx - Quick Step06:13:48  +  00:33:34=31,300 
116116 FRAPierre-Luc PérichonFRABretagne - Séché Environnement06:13:48  +  00:33:34=31,300 
117117 CZEZdenek StybarBELEtixx - Quick Step06:13:48  +  00:33:34=31,300 
118118 BELGreg Van AvermaetUSABMC Racing Team06:13:48  +  00:33:34=31,300 
119119 ESPRafael Valls FerriITALampre-Merida06:13:48  +  00:33:34=31,300 
120120 PORJosé João PimentaDEUBora-Argon 1806:13:48  +  00:33:34=31,300 
121121 ITAMatteo BonoITALampre-Merida06:13:48  +  00:33:34=31,300 
122122 SVKPeter SaganRUSTinkoff Saxo06:13:48  +  00:33:34=31,300 
123123 ITAMichele ScarponiKAZAstana Pro Team06:13:48  +  00:33:34=31,300 
124124 FRACyril GautierFRATeam Europcar06:13:48  +  00:33:34=31,300 
125125 GERAndré GreipelBELLotto Soudal06:13:48  +  00:33:34=31,300 
126126 FRAYohann GèneFRATeam Europcar06:13:48  +  00:33:34=31,300 
127127 POLBartosz HuzarskiDEUBora-Argon 1806:13:48  +  00:33:34=31,300 
128128 GERPaul VossDEUBora-Argon 1806:13:48  +  00:33:34=31,300 
129129 ITADaniel OssUSABMC Racing Team06:13:48  +  00:33:34=31,300 
130130 KAZDmitriy GruzdevKAZAstana Pro Team06:13:48  +  00:33:34=31,300 
131131 NEDPieter WeeningAUSOrica - GreenEDGE06:13:48  +  00:33:34=31,300 
132132 NEDAlbert TimmerDEUTeam Giant Alpecin06:13:48  +  00:33:34=31,300 
133133 LUXLaurent DidierUSATrek Factory Racing06:13:48  +  00:33:34=31,300 
134134 BELTim WellensBELLotto Soudal06:13:48  +  00:33:34=31,300 
135135 FRAAngelo TulikFRATeam Europcar06:15:01  +  00:34:47=31,199 
136136 FRABryan CoquardFRATeam Europcar06:15:01  +  00:34:47=31,199 
137137 NEDDylan Van BaarleUSATeam Cannondale - Garmin06:17:08  +  00:36:54=31,024 
138138 NEDRamon SinkeldamDEUTeam Giant Alpecin06:17:08  +  00:36:54=31,024 
139139 FRAGeoffrey SoupeFRACofidis – Solutions Crédits06:17:08  +  00:36:54=31,024 
140140 AUTMatthias BrändleCHEIAM Cycling06:17:08  +  00:36:54=31,024 
141141 GERMarcel SiebergBELLotto Soudal06:17:08  +  00:36:54=31,024 
142142 COLJulián ArredondoUSATrek Factory Racing06:17:08  +  00:36:54=31,024 
143143 RSAReinardt Janse Van RensburgZAFMTN - Qhubeka P/B Samsung06:17:08  +  00:36:54=31,024 
144144 USATyler FarrarZAFMTN - Qhubeka P/B Samsung06:17:08  +  00:36:54=31,024 
145145 AUSNathan HaasUSATeam Cannondale - Garmin06:17:08  +  00:36:54=31,024 
146146 ITAFilippo PozzatoITALampre-Merida06:17:08  +  00:36:54=31,024 
147147 DENMichael ValgrenRUSTinkoff Saxo06:17:08  +  00:36:54=31,024 
148148 BELSam BennettDEUBora-Argon 1806:17:08  +  00:36:54=31,024 
149149 ITAJacopo GuarnieriRUSTeam Katusha06:17:08  +  00:36:54=31,024 
150150 FRAChristophe LaporteFRACofidis – Solutions Crédits06:17:08  +  00:36:54=31,024 
151151 FRAChristophe RiblonFRAAg2r La Mondiale06:17:08  +  00:36:54=31,024 
152152 RSAJacques Janse Van RensburgZAFMTN - Qhubeka P/B Samsung06:17:08  +  00:36:54=31,024 
153153 COLJosé SerpaITALampre-Merida06:17:08  +  00:36:54=31,024 
154154 FRABryan NauleauFRATeam Europcar06:17:08  +  00:36:54=31,024 
155155 FRASébastien ChavanelFRAFDJ06:17:08  +  00:36:54=31,024 
156156 NORAlexander KristoffRUSTeam Katusha06:17:08  +  00:36:54=31,024 
157157 NOREdvald Boasson HagenZAFMTN - Qhubeka P/B Samsung06:17:08  +  00:36:54=31,024 
158158 AUSMark RenshawBELEtixx - Quick Step06:17:08  +  00:36:54=31,024 
159159 FRADamien GaudinFRAAg2r La Mondiale06:17:08  +  00:36:54=31,024 
160160 ENGSimon YatesAUSOrica - GreenEDGE06:17:08  +  00:36:54=31,024 
161161 AUSLuke DurbridgeAUSOrica - GreenEDGE06:17:08  +  00:36:54=31,024 
162162 COLRigoberto UránBELEtixx - Quick Step06:17:08  +  00:36:54=31,024 
163163 AUSMichael MatthewsAUSOrica - GreenEDGE06:17:08  +  00:36:54=31,024 
164164 FRAArnaud DémareFRAFDJ06:17:08  +  00:36:54=31,024 
165165 ITAMatteo TrentinBELEtixx - Quick Step06:17:08  +  00:36:54=31,024 
166166 ENGIan StannardGBRSky Procycling06:17:08  +  00:36:54=31,024 
167167 IOMMark CavendishBELEtixx - Quick Step06:17:08  +  00:36:54=31,024 
168168 AUTMarco HallerRUSTeam Katusha06:17:08  +  00:36:54=31,024 
169169 NEDTom LeezerNLDTeam Lotto NL - Jumbo06:17:08  +  00:36:54=31,024 
170170 NEDSebastian LangeveldUSATeam Cannondale - Garmin06:17:08  +  00:36:54=31,024 
171171 WALLuke RoweGBRSky Procycling06:17:08  +  00:36:54=31,024 
172172 BELKenneth VanbilsenFRACofidis – Solutions Crédits06:17:08  +  00:36:54=31,024 
173173 URSRamunas NavardauskasUSATeam Cannondale - Garmin06:17:08  +  00:36:54=31,024 
174174 CANSvein TuftAUSOrica - GreenEDGE06:17:08  +  00:36:54=31,024 
175175 ITADavide CimolaiITALampre-Merida06:17:47  +  00:37:33=30,970 

Withdrawls: 2
 
Rider
Team
Reason
54  ENGAlex DowsettESPMovistar TeamDid not finish
194  AUSZakkari DempsterDEUBora-Argon 18Did not finish
Todays birthdays.

1878  Louis Gardent
1904  Ludwig Geyer
1911  Paul Egli
1916  Piet Van Nek
1926  Bruno Garonzi
1933  Roger Baens
1938  Roland Zöffel
1945  Marcello Osler
1946  Antonio Menendez
1962  Niki Rüttimann
1969  Serge Baguet
1970  Cédric Vasseur
1971  Cristian Salvato
1972  Sven Teutenberg
1988  Frédéric Brun